GW1885 Weather Reports


Display with metric or nautical units.
time (UTC)temp
F
wind
direction
speed
MPH
gust
MPH
rain 1hr
in
rain 24hr
in
rain mn
in
humidity
%
barometer
mb
20260510235005 47 163 2.0 3.0 0.00 0.00 0.00 85 1007.1
20260510234504 48 161 1.0 3.0 0.00 0.00 0.00 84 1007.3
20260510234005 48 162 1.0 2.0 0.00 0.00 0.00 84 1007.4
20260510233505 48 160 1.0 2.0 0.00 0.00 0.00 84 1007.3
20260510233005 49 156 1.0 2.0 0.00 0.00 0.00 83 1007.3
20260510232504 49 151 1.0 2.0 0.00 0.00 0.00 83 1007.3
20260510232025 49 151 1.0 2.0 0.00 0.00 0.00 84 1007.4
20260510231505 49 150 1.0 2.0 0.00 0.00 0.00 85 1007.4
20260510231005 48 147 1.0 2.0 0.00 0.00 0.00 88 1007.5
20260510230504 48 153 1.0 2.0 0.00 0.00 0.00 87 1007.5
20260510230026 48 157 1.0 2.0 0.00 0.00 0.00 87 1007.4
20260510225505 48 156 1.0 2.0 0.00 0.00 0.00 88 1007.4
20260510225005 48 155 1.0 2.0 0.00 0.00 0.00 87 1007.5
20260510224504 49 154 1.0 2.0 0.00 0.00 0.00 86 1007.3
20260510224026 48 145 1.0 2.0 0.00 0.00 0.00 87 1007.4
20260510223505 49 134 0.0 2.0 0.00 0.00 0.00 87 1007.4
20260510223004 49 125 0.0 1.0 0.00 0.00 0.00 86 1007.4
20260510222505 49 125 0.0 1.0 0.00 0.00 0.00 86 1007.7
20260510222004 49 125 0.0 1.0 0.00 0.00 0.00 85 1007.7
20260510221504 49 124 0.0 2.0 0.00 0.00 0.00 85 1007.7
20260510221005 50 130 1.0 2.0 0.00 0.00 0.00 84 1007.5
20260510220525 50 140 1.0 2.0 0.00 0.00 0.00 83 1007.5
20260510220005 50 148 0.0 1.0 0.00 0.00 0.00 84 1007.7
20260510215505 49 148 0.0 1.0 0.00 0.00 0.00 85 1007.7
20260510215005 49 148 0.0 1.0 0.00 0.00 0.00 85 1007.8
20260510214504 49 148 0.0 1.0 0.00 0.00 0.00 85 1007.7
20260510214005 49 148 0.0 1.0 0.00 0.00 0.00 85 1007.8
20260510213504 49 149 0.0 1.0 0.00 0.00 0.00 84 1007.8
20260510213004 49 149 0.0 1.0 0.00 0.00 0.00 84 1007.8
20260510212505 49 148 0.0 1.0 0.00 0.00 0.00 84 1007.8
20260510212004 49 156 1.0 2.0 0.00 0.00 0.00 85 1007.7
20260510211504 50 180 1.0 2.0 0.00 0.00 0.00 84 1008.0
20260510211026 50 221 1.0 2.0 0.00 0.00 0.00 84 1007.9
20260510210505 50 261 1.0 2.0 0.00 0.00 0.00 83 1008.1
20260510210005 50 285 0.0 1.0 0.00 0.00 0.00 82 1007.9
20260510205505 50 285 0.0 1.0 0.00 0.00 0.00 83 1008.2
20260510205004 51 285 0.0 1.0 0.00 0.00 0.00 82 1008.2
20260510204525 51 285 0.0 1.0 0.00 0.00 0.00 82 1008.2
20260510204026 51 0 0.0 0.0 0.00 0.00 0.00 82 1008.2
20260510203505 51 0 0.0 0.0 0.00 0.00 0.00 80 1008.4
20260510203004 52 0 0.0 0.0 0.00 0.00 0.00 80 1008.3
20260510202526 52 0 0.0 0.0 0.00 0.00 0.00 80 1008.3
20260510202025 52 0 0.0 0.0 0.00 0.00 0.00 80 1008.4
20260510201526 52 285 0.0 1.0 0.00 0.00 0.00 80 1008.5
20260510201004 52 285 0.0 1.0 0.00 0.00 0.00 80 1008.4
20260510200505 52 285 0.0 2.0 0.00 0.00 0.00 79 1008.5
20260510200004 53 285 0.0 2.0 0.00 0.00 0.00 77 1008.5
20260510195505 53 285 0.0 1.0 0.00 0.00 0.00 76 1008.6
20260510195005 53 285 0.0 2.0 0.00 0.00 0.00 74 1008.4
20260510194504 53 285 0.0 2.0 0.00 0.00 0.00 75 1008.7
20260510194026 53 285 0.0 1.0 0.00 0.00 0.00 74 1008.6
20260510193505 54 284 0.0 1.0 0.00 0.00 0.00 75 1008.6
20260510193005 54 282 0.0 1.0 0.00 0.00 0.00 74 1008.8
20260510192505 54 283 0.0 2.0 0.00 0.00 0.00 74 1008.8
20260510192005 54 286 1.0 3.0 0.00 0.00 0.00 73 1008.8
20260510191505 54 290 1.0 3.0 0.00 0.00 0.00 72 1008.9
20260510191005 55 293 1.0 3.0 0.00 0.00 0.00 71 1008.9
20260510190504 55 289 1.0 3.0 0.00 0.00 0.00 71 1008.9
20260510190005 54 280 0.0 1.0 0.00 0.00 0.00 70 1009.0
20260510185505 55 280 0.0 1.0 0.00 0.00 0.00 72 1008.9
20260510185005 55 280 0.0 1.0 0.00 0.00 0.00 70 1008.7
20260510184504 55 280 0.0 1.0 0.00 0.00 0.00 68 1008.8
20260510184005 56 280 0.0 1.0 0.00 0.00 0.00 68 1008.9
20260510183503 56 280 0.0 1.0 0.00 0.00 0.00 66 1008.8
20260510183025 56 280 0.0 1.0 0.00 0.00 0.00 64 1008.8
20260510182505 57 0 0.0 0.0 0.00 0.00 0.00 63 1008.9
20260510182005 57 0 0.0 0.0 0.00 0.00 0.00 64 1008.8
20260510181505 58 0 0.0 0.0 0.00 0.00 0.00 64 1008.6
20260510181005 58 0 0.0 0.0 0.00 0.00 0.00 61 1008.8
20260510180505 58 0 0.0 0.0 0.00 0.00 0.00 61 1008.7
20260510180004 58 0 0.0 0.0 0.00 0.00 0.00 63 1008.7
20260510175504 59 0 0.0 0.0 0.00 0.00 0.00 62 1008.7
20260510175025 59 280 0.0 1.0 0.00 0.00 0.00 61 1009.0
20260510174505 59 280 0.0 1.0 0.00 0.00 0.00 61 1009.0
20260510174005 60 279 0.0 1.0 0.00 0.00 0.00 60 1009.0
20260510173505 60 279 0.0 1.0 0.00 0.00 0.00 57 1009.0
20260510173004 60 280 0.0 1.0 0.00 0.00 0.00 57 1009.0
20260510172505 61 284 1.0 3.0 0.00 0.00 0.00 56 1009.1
20260510172005 61 286 0.0 3.0 0.00 0.00 0.00 55 1009.1
20260510171504 61 289 0.0 2.0 0.00 0.00 0.00 57 1009.2
20260510171005 61 282 0.0 3.0 0.00 0.00 0.00 60 1009.1
20260510170526 62 286 1.0 3.0 0.00 0.00 0.00 55 1009.4
20260510170005 62 289 1.0 3.0 0.00 0.00 0.00 51 1009.3
20260510165505 62 291 1.0 3.0 0.00 0.00 0.00 52 1009.2
20260510165004 63 318 1.0 2.0 0.00 0.00 0.00 55 1009.3
20260510164505 63 299 1.0 3.0 0.00 0.00 0.00 49 1009.5
20260510164004 63 274 1.0 3.0 0.00 0.00 0.00 47 1009.5
20260510163503 63 253 1.0 3.0 0.00 0.00 0.00 52 1009.6
20260510163005 64 221 1.0 3.0 0.00 0.00 0.00 46 1009.6
20260510162504 64 157 1.0 3.0 0.00 0.00 0.00 46 1009.7
20260510162005 65 151 2.0 4.0 0.00 0.00 0.00 46 1009.6
20260510161525 65 166 3.0 6.0 0.00 0.00 0.00 42 1009.9
20260510161026 65 158 4.0 8.0 0.00 0.00 0.00 40 1009.8
20260510160503 65 155 5.0 8.0 0.00 0.00 0.00 42 1009.8
20260510160005 65 158 5.0 11.0 0.00 0.00 0.00 42 1009.9
20260510155505 65 159 5.0 11.0 0.00 0.00 0.00 42 1009.9
20260510155003 65 160 5.0 8.0 0.00 0.00 0.00 39 1010.0
20260510154505 65 163 5.0 8.0 0.00 0.00 0.00 41 1010.2
20260510154005 65 161 5.0 8.0 0.00 0.00 0.00 42 1010.1
20260510153505 65 162 4.0 8.0 0.00 0.00 0.00 41 1010.2
20260510153026 65 167 4.0 8.0 0.00 0.00 0.00 41 1010.2
20260510152505 66 160 5.0 11.0 0.00 0.00 0.00 39 1010.2
20260510152003 66 158 6.0 11.0 0.00 0.00 0.00 40 1010.3
20260510151503 66 156 6.0 13.0 0.00 0.00 0.00 37 1010.3
20260510151005 67 152 6.0 13.0 0.00 0.00 0.00 38 1010.3
20260510150505 66 151 5.0 13.0 0.00 0.00 0.00 40 1010.5
20260510150005 66 157 4.0 9.0 0.00 0.00 0.00 39 1010.6
20260510145504 66 160 5.0 10.0 0.00 0.00 0.00 40 1010.6
20260510145003 67 155 5.0 10.0 0.00 0.00 0.00 39 1010.5
20260510144505 67 148 4.0 9.0 0.00 0.00 0.00 42 1010.7
20260510144005 66 152 5.0 10.0 0.00 0.00 0.00 40 1010.7
20260510143503 66 159 4.0 10.0 0.00 0.00 0.00 39 1010.7
20260510143008 66 163 3.0 6.0 0.00 0.00 0.00 42 1011.0
20260510142004 66 148 4.0 11.0 0.00 0.00 0.00 40 1011.1
20260510140503 67 163 4.0 10.0 0.00 0.00 0.00 40 1011.5
20260510140026 67 159 5.0 10.0 0.00 0.00 0.00 41 1011.4
20260510135504 67 151 6.0 14.0 0.00 0.00 0.00 39 1011.6
20260510135026 67 147 6.0 14.0 0.00 0.00 0.00 38 1011.6
20260510134505 66 151 4.0 8.0 0.00 0.00 0.00 38 1011.7
20260510134003 67 148 4.0 8.0 0.00 0.00 0.00 39 1011.9
20260510133503 67 156 4.0 8.0 0.00 0.00 0.00 36 1011.9
20260510133005 68 163 4.0 9.0 0.00 0.00 0.00 36 1011.9
20260510132503 68 157 4.0 9.0 0.00 0.00 0.00 38 1011.9
20260510132007 67 153 2.0 7.0 0.00 0.00 0.00 40 1012.0
20260510131507 67 155 3.0 7.0 0.00 0.00 0.00 39 1012.1
20260510131027 67 154 2.0 7.0 0.00 0.00 0.00 38 1012.2
20260510130503 67 152 1.0 4.0 0.00 0.00 0.00 39 1012.3
20260510130005 67 151 2.0 7.0 0.00 0.00 0.00 36 1012.3
20260510125504 67 144 3.0 9.0 0.00 0.00 0.00 38 1012.2
20260510125004 66 143 3.0 9.0 0.00 0.00 0.00 41 1012.5
20260510124504 67 146 3.0 8.0 0.00 0.00 0.00 36 1012.6
20260510124005 68 147 3.0 8.0 0.00 0.00 0.00 36 1012.5
20260510123503 68 136 2.0 7.0 0.00 0.00 0.00 38 1012.6
20260510123024 68 134 2.0 8.0 0.00 0.00 0.00 39 1012.8
20260510122530 67 139 4.0 11.0 0.00 0.00 0.00 37 1012.6
20260510122005 66 135 4.0 11.0 0.00 0.00 0.00 36 1012.8
20260510121503 68 139 4.0 8.0 0.00 0.00 0.00 36 1012.9
20260510121004 67 136 5.0 11.0 0.00 0.00 0.00 37 1013.0
20260510120524 67 135 5.0 11.0 0.00 0.00 0.00 38 1013.0
20260510120004 68 138 4.0 10.0 0.00 0.00 0.00 34 1013.1
20260510115504 68 139 4.0 10.0 0.00 0.00 0.00 34 1013.2
20260510115003 67 137 3.0 8.0 0.00 0.00 0.00 39 1013.2
20260510114504 68 123 2.0 8.0 0.00 0.00 0.00 39 1013.4
20260510114004 67 101 1.0 3.0 0.00 0.00 0.00 36 1013.4
20260510113525 66 119 2.0 6.0 0.00 0.00 0.00 37 1013.5
20260510113025 68 122 2.0 6.0 0.00 0.00 0.00 35 1013.6
20260510112524 67 113 1.0 4.0 0.00 0.00 0.00 40 1013.5
20260510112024 66 135 2.0 4.0 0.00 0.00 0.00 42 1013.7
20260510111505 68 148 3.0 7.0 0.00 0.00 0.00 40 1013.9
20260510111004 67 152 3.0 7.0 0.00 0.00 0.00 43 1014.1
20260510110503 67 169 3.0 6.0 0.00 0.00 0.00 40 1014.0
20260510110005 66 150 2.0 6.0 0.00 0.00 0.00 39 1014.1
20260510105504 66 131 2.0 6.0 0.00 0.00 0.00 36 1014.3
20260510105004 66 151 3.0 10.0 0.00 0.00 0.00 39 1014.3
20260510104504 66 151 4.0 10.0 0.00 0.00 0.00 37 1014.5
20260510104004 67 147 4.0 9.0 0.00 0.00 0.00 40 1014.6
20260510103504 66 145 3.0 8.0 0.00 0.00 0.00 37 1014.6
20260510103003 65 152 3.0 7.0 0.00 0.00 0.00 38 1014.7
20260510102504 65 153 3.0 7.0 0.00 0.00 0.00 37 1014.8
20260510102003 65 143 3.0 7.0 0.00 0.00 0.00 39 1014.8
20260510101524 65 130 2.0 4.0 0.00 0.00 0.00 40 1015.1
20260510101004 65 130 2.0 7.0 0.00 0.00 0.00 37 1014.9
20260510100503 66 137 2.0 7.0 0.00 0.00 0.00 40 1015.3
20260510100004 66 133 2.0 7.0 0.00 0.00 0.00 42 1015.2
20260510095504 66 148 2.0 8.0 0.00 0.00 0.00 40 1015.1
20260510095003 65 152 3.0 8.0 0.00 0.00 0.00 38 1015.2
20260510094524 66 150 3.0 8.0 0.00 0.00 0.00 39 1015.3
20260510094004 66 148 3.0 8.0 0.00 0.00 0.00 37 1015.3
20260510093503 65 149 3.0 7.0 0.00 0.00 0.00 36 1015.2
20260510093004 65 148 3.0 7.0 0.00 0.00 0.00 37 1015.3
20260510092504 64 149 3.0 7.0 0.00 0.00 0.00 41 1015.3
20260510092004 65 136 4.0 9.0 0.00 0.00 0.00 42 1015.4
20260510091504 64 133 4.0 9.0 0.00 0.00 0.00 41 1015.3
20260510091025 63 144 3.0 8.0 0.00 0.00 0.00 40 1015.5
20260510090503 64 148 4.0 8.0 0.00 0.00 0.00 45 1015.4
20260510090003 64 151 3.0 8.0 0.00 0.00 0.00 41 1015.4
20260510085503 63 146 4.0 9.0 0.00 0.00 0.00 40 1015.5
20260510085004 63 147 4.0 9.0 0.00 0.00 0.00 38 1015.6
20260510084526 63 154 4.0 7.0 0.00 0.00 0.00 42 1015.7
20260510084025 63 154 4.0 8.0 0.00 0.00 0.00 40 1015.7
20260510083526 63 143 4.0 9.0 0.00 0.00 0.00 43 1015.7
20260510083005 62 142 4.0 9.0 0.00 0.00 0.00 39 1015.8
20260510082505 62 152 3.0 8.0 0.00 0.00 0.00 42 1015.8
20260510082005 62 146 3.0 10.0 0.00 0.00 0.00 40 1015.8
20260510081505 61 142 4.0 10.0 0.00 0.00 0.00 43 1015.8
20260510081005 61 143 5.0 9.0 0.00 0.00 0.00 40 1015.9
20260510080525 61 138 4.0 9.0 0.00 0.00 0.00 40 1015.8
20260510080005 60 140 4.0 8.0 0.00 0.00 0.00 38 1016.2
20260510075505 61 150 3.0 8.0 0.00 0.00 0.00 43 1016.2
20260510075005 60 151 3.0 8.0 0.00 0.00 0.00 41 1016.3
20260510074504 60 148 3.0 8.0 0.00 0.00 0.00 43 1016.5
20260510074005 60 141 3.0 6.0 0.00 0.00 0.00 47 1016.5
20260510073504 59 131 2.0 6.0 0.00 0.00 0.00 47 1016.7
20260510073004 58 123 2.0 3.0 0.00 0.00 0.00 42 1016.8
20260510072505 58 123 2.0 3.0 0.00 0.00 0.00 43 1016.6
20260510072004 58 124 2.0 6.0 0.00 0.00 0.00 46 1016.6
20260510071504 57 134 2.0 6.0 0.00 0.00 0.00 47 1016.7
20260510071026 56 144 2.0 4.0 0.00 0.00 0.00 48 1016.5
20260510070505 56 136 1.0 3.0 0.00 0.00 0.00 54 1016.8
20260510070025 56 138 1.0 3.0 0.00 0.00 0.00 51 1016.9
20260510065505 56 148 2.0 4.0 0.00 0.00 0.00 52 1017.0
20260510065005 55 152 2.0 4.0 0.00 0.00 0.00 48 1016.9
20260510064525 55 152 2.0 4.0 0.00 0.00 0.00 50 1017.1
20260510064004 54 141 1.0 4.0 0.00 0.00 0.00 53 1017.0
20260510063504 54 140 1.0 4.0 0.00 0.00 0.00 54 1017.0
20260510063005 54 141 1.0 2.0 0.00 0.00 0.00 57 1017.1
20260510062504 54 143 1.0 2.0 0.00 0.00 0.00 59 1017.2
20260510062004 53 146 1.0 2.0 0.00 0.00 0.00 60 1017.0
20260510061505 52 139 1.0 2.0 0.00 0.00 0.00 59 1017.1
20260510061025 52 137 1.0 3.0 0.00 0.00 0.00 58 1017.4
20260510060504 51 139 1.0 3.0 0.00 0.00 0.00 59 1017.2
20260510060004 51 136 1.0 3.0 0.00 0.00 0.00 64 1017.3
20260510055505 50 135 1.0 4.0 0.00 0.00 0.00 67 1017.1
20260510055005 49 124 1.0 4.0 0.00 0.00 0.00 67 1017.3
20260510054504 49 64 1.0 3.0 0.00 0.00 0.00 68 1017.1
20260510054004 48 4 0.0 2.0 0.00 0.00 0.00 71 1017.4
20260510053504 47 356 1.0 2.0 0.00 0.00 0.00 76 1017.2
20260510053025 46 351 0.0 2.0 0.00 0.00 0.00 74 1017.5
20260510052505 45 338 0.0 1.0 0.00 0.00 0.00 79 1017.5
20260510052005 44 338 0.0 1.0 0.00 0.00 0.00 83 1017.5
20260510051504 42 338 0.0 1.0 0.00 0.00 0.00 92 1017.6
20260510051004 40 338 1.0 1.0 0.00 0.00 0.00 97 1017.5
20260510050505 39 338 0.0 1.0 0.00 0.00 0.00 98 1017.6
20260510050005 37 338 0.0 1.0 0.00 0.00 0.00 99 1017.6
20260510045505 37 337 0.0 1.0 0.00 0.00 0.00 99 1017.7
20260510045004 36 337 0.0 1.0 0.00 0.00 0.00 98 1017.5
20260510044504 35 0 0.0 0.0 0.00 0.00 0.00 98 1017.4
20260510044004 35 0 0.0 0.0 0.00 0.00 0.00 98 1017.5
20260510043504 35 337 0.0 1.0 0.00 0.00 0.00 98 1017.7
20260510043005 34 337 0.0 1.0 0.00 0.00 0.00 98 1017.6
20260510042504 34 0 0.0 0.0 0.00 0.00 0.00 98 1017.8
20260510042005 33 0 0.0 0.0 0.00 0.00 0.00 98 1017.7
20260510041505 33 0 0.0 0.0 0.00 0.00 0.00 98 1017.8
20260510041005 33 0 0.0 0.0 0.00 0.00 0.00 98 1018.0
20260510040504 33 0 0.0 0.0 0.00 0.00 0.00 98 1018.0
20260510040004 32 0 0.0 0.0 0.00 0.00 0.00 98 1018.1
20260510035504 32 0 0.0 0.0 0.00 0.00 0.00 98 1018.0
20260510035005 32 0 0.0 0.0 0.00 0.00 0.00 98 1018.0
20260510034504 32 0 0.0 0.0 0.00 0.00 0.00 98 1018.2
20260510034004 32 0 0.0 0.0 0.00 0.00 0.00 98 1018.1
20260510033504 32 0 0.0 0.0 0.00 0.00 0.00 98 1018.3
20260510033004 32 0 0.0 0.0 0.00 0.00 0.00 98 1018.4
20260510032504 32 0 0.0 0.0 0.00 0.00 0.00 97 1018.2
20260510032004 32 0 0.0 0.0 0.00 0.00 0.00 98 1018.5
20260510031505 32 0 0.0 0.0 0.00 0.00 0.00 98 1018.5
20260510031005 32 0 0.0 0.0 0.00 0.00 0.00 97 1018.3
20260510030505 32 0 0.0 0.0 0.00 0.00 0.00 97 1018.5
20260510030004 32 0 0.0 0.0 0.00 0.00 0.00 97 1018.6
20260510025526 32 0 0.0 0.0 0.00 0.00 0.00 97 1018.5
20260510025005 32 337 0.0 1.0 0.00 0.00 0.00 97 1018.3
20260510024504 32 337 0.0 1.0 0.00 0.00 0.00 97 1018.6
20260510024004 32 337 0.0 1.0 0.00 0.00 0.00 97 1018.8
20260510023504 32 0 0.0 0.0 0.00 0.00 0.00 97 1018.8
20260510023004 32 0 0.0 0.0 0.00 0.00 0.00 97 1018.7
20260510022504 32 0 0.0 0.0 0.00 0.00 0.00 97 1018.7
20260510022005 33 0 0.0 0.0 0.00 0.00 0.00 97 1018.7
20260510021504 33 0 0.0 0.0 0.00 0.00 0.00 97 1018.8
20260510021025 33 0 0.0 0.0 0.00 0.00 0.00 97 1018.9
20260510020526 33 337 0.0 1.0 0.00 0.00 0.00 97 1018.9
20260510020004 33 337 0.0 1.0 0.00 0.00 0.00 97 1018.7
20260510015504 33 337 0.0 1.0 0.00 0.00 0.00 97 1018.8
20260510015005 33 0 0.0 0.0 0.00 0.00 0.00 97 1019.0
20260510014504 33 0 0.0 0.0 0.00 0.00 0.00 97 1018.9
20260510014005 33 0 0.0 0.0 0.00 0.00 0.00 97 1018.9
20260510013504 33 0 0.0 0.0 0.00 0.00 0.00 97 1019.0
20260510013025 33 0 0.0 0.0 0.00 0.00 0.00 97 1019.0
20260510012504 34 0 0.0 0.0 0.00 0.00 0.00 97 1018.9
20260510012005 34 0 0.0 0.0 0.00 0.00 0.00 97 1019.1
20260510011504 34 0 0.0 0.0 0.00 0.00 0.00 96 1019.2
20260510011004 34 0 0.0 0.0 0.00 0.00 0.00 96 1019.1
20260510010505 34 0 0.0 0.0 0.00 0.00 0.00 96 1019.0
20260510010004 34 0 0.0 0.0 0.00 0.00 0.00 96 1019.0
20260510005525 34 0 0.0 0.0 0.00 0.00 0.00 96 1019.2
20260510005005 34 0 0.0 0.0 0.00 0.00 0.00 96 1019.0
20260510004505 34 0 0.0 0.0 0.00 0.00 0.00 96 1019.2
20260510004004 34 0 0.0 0.0 0.00 0.00 0.00 96 1019.2
20260510003526 34 0 0.0 0.0 0.00 0.00 0.00 96 1019.1
20260510003025 34 0 0.0 0.0 0.00 0.00 0.00 96 1019.2
20260510002504 35 0 0.0 0.0 0.00 0.00 0.00 96 1019.2
20260510002004 35 0 0.0 0.0 0.00 0.00 0.00 95 1019.4
20260510001504 35 0 0.0 0.0 0.00 0.00 0.00 95 1019.3
20260510001025 35 0 0.0 0.0 0.00 0.00 0.00 95 1019.4
20260510000505 35 0 0.0 0.0 0.00 0.00 0.00 95 1019.6
20260510000004 35 0 0.0 0.0 0.00 0.00 0.00 95 1019.5
20260509235504 36 337 0.0 1.0 0.00 0.00 0.00 95 1019.6